TimeCST,TemperatureF,Dew PointF,Humidity,Sea Level PressureIn,VisibilityMPH,Wind Direction,Wind SpeedMPH,Gust SpeedMPH,PrecipitationIn,Events,Conditions,WindDirDegrees,DateUTC
12:15 AM,59.4,46.4,62,30.00,10.0,South,17.3,-,N/A,,Clear,170,2012-11-11 06:15:00
12:35 AM,59.4,46.4,62,30.00,10.0,South,17.3,-,N/A,,Clear,170,2012-11-11 06:35:00
12:55 AM,59.0,46.2,63,29.99,10.0,SSE,19.6,24.2,N/A,,Clear,160,2012-11-11 06:55:00
1:15 AM,58.3,46.4,65,29.99,10.0,South,15.0,-,N/A,,Clear,170,2012-11-11 07:15:00
1:35 AM,57.7,46.4,66,30.00,10.0,SSE,11.5,-,N/A,,Clear,160,2012-11-11 07:35:00
1:55 AM,57.2,46.4,67,30.01,10.0,SSE,11.5,-,N/A,,Clear,160,2012-11-11 07:55:00
2:15 AM,56.7,46.4,69,30.01,10.0,SSE,11.5,17.3,N/A,,Clear,160,2012-11-11 08:15:00
2:35 AM,55.8,46.4,71,30.01,10.0,SSE,9.2,-,N/A,,Clear,150,2012-11-11 08:35:00
2:55 AM,53.6,46.4,77,30.01,10.0,SSE,8.1,-,N/A,,Clear,150,2012-11-11 08:55:00
3:15 AM,52.9,46.4,79,30.01,10.0,SSE,9.2,-,N/A,,Clear,150,2012-11-11 09:15:00
3:35 AM,52.9,46.4,79,30.02,10.0,SSE,6.9,-,N/A,,Clear,150,2012-11-11 09:35:00
3:55 AM,52.7,46.6,80,30.03,10.0,SE,6.9,-,N/A,,Clear,140,2012-11-11 09:55:00
4:15 AM,52.2,46.8,82,30.03,10.0,SSE,6.9,-,N/A,,Clear,150,2012-11-11 10:15:00
4:35 AM,52.0,46.8,82,30.03,10.0,SSE,9.2,-,N/A,,Clear,150,2012-11-11 10:35:00
4:55 AM,53.2,46.6,78,30.02,10.0,SSE,12.7,-,N/A,,Clear,150,2012-11-11 10:55:00
5:15 AM,53.6,46.4,77,30.02,10.0,SSE,11.5,-,N/A,,Clear,150,2012-11-11 11:15:00
5:35 AM,54.5,46.4,74,30.02,10.0,SSE,11.5,-,N/A,,Clear,150,2012-11-11 11:35:00
5:55 AM,54.7,46.4,74,30.02,10.0,SSE,13.8,-,N/A,,Clear,160,2012-11-11 11:55:00
6:15 AM,54.5,46.4,74,30.02,10.0,SSE,15.0,-,N/A,,Scattered Clouds,150,2012-11-11 12:15:00
6:35 AM,54.5,46.2,74,30.02,10.0,SSE,13.8,-,N/A,,Clear,150,2012-11-11 12:35:00
6:55 AM,54.7,46.2,73,30.01,3.0,SSE,17.3,-,N/A,,Haze,160,2012-11-11 12:55:00
7:15 AM,55.4,46.4,72,30.02,10.0,SSE,19.6,24.2,N/A,,Scattered Clouds,160,2012-11-11 13:15:00
7:35 AM,56.1,46.8,71,30.01,10.0,SSE,21.9,25.3,N/A,,Scattered Clouds,160,2012-11-11 13:35:00
7:55 AM,56.8,46.8,69,30.01,10.0,SSE,25.3,29.9,N/A,,Clear,160,2012-11-11 13:55:00
8:15 AM,57.9,47.5,68,30.00,10.0,SSE,25.3,32.2,N/A,,Clear,160,2012-11-11 14:15:00
8:35 AM,59.9,48.2,65,29.99,10.0,SSE,27.6,34.5,N/A,,Clear,160,2012-11-11 14:35:00
8:55 AM,61.5,48.7,63,29.99,10.0,South,28.8,35.7,N/A,,Clear,180,2012-11-11 14:55:00
9:15 AM,62.8,49.1,61,29.99,10.0,South,31.1,38.0,N/A,,Scattered Clouds,170,2012-11-11 15:15:00
9:35 AM,64.2,49.6,59,29.98,10.0,South,27.6,34.5,N/A,,Scattered Clouds,170,2012-11-11 15:35:00
9:55 AM,64.9,50.0,58,29.98,10.0,South,31.1,38.0,N/A,,Scattered Clouds,170,2012-11-11 15:55:00
10:15 AM,64.6,50.2,60,29.98,10.0,South,25.3,38.0,N/A,,Scattered Clouds,180,2012-11-11 16:15:00
10:35 AM,65.3,50.2,58,29.97,10.0,South,27.6,39.1,N/A,,Scattered Clouds,180,2012-11-11 16:35:00
10:55 AM,66.2,51.8,60,29.96,10.0,South,25.3,38.0,N/A,,Scattered Clouds,180,2012-11-11 16:55:00
11:15 AM,68.0,51.8,56,29.95,10.0,South,28.8,42.6,N/A,,Scattered Clouds,180,2012-11-11 17:15:00
11:35 AM,67.5,51.1,56,29.93,10.0,South,33.4,42.6,N/A,,Mostly Cloudy,170,2012-11-11 17:35:00
11:55 AM,68.0,51.8,56,29.93,10.0,South,31.1,40.3,N/A,,Scattered Clouds,180,2012-11-11 17:55:00
12:15 PM,68.2,51.4,55,29.92,10.0,South,35.7,42.6,N/A,,Scattered Clouds,170,2012-11-11 18:15:00
12:35 PM,67.3,51.3,56,29.91,10.0,South,31.1,42.6,N/A,,Scattered Clouds,180,2012-11-11 18:35:00
12:55 PM,68.0,51.6,56,29.90,10.0,South,34.5,44.9,N/A,,Mostly Cloudy,170,2012-11-11 18:55:00
1:15 PM,69.8,51.8,53,29.88,10.0,South,36.8,43.7,N/A,,Scattered Clouds,170,2012-11-11 19:15:00
1:35 PM,68.9,51.8,54,29.87,10.0,South,32.2,42.6,N/A,,Clear,170,2012-11-11 19:35:00
1:55 PM,69.1,52.2,55,29.87,10.0,South,32.2,41.4,N/A,,Clear,170,2012-11-11 19:55:00
2:15 PM,68.2,52.0,56,29.85,10.0,SSE,34.5,42.6,N/A,,Clear,160,2012-11-11 20:15:00
2:35 PM,67.3,52.0,58,29.85,10.0,South,33.4,44.9,N/A,,Clear,170,2012-11-11 20:35:00
2:55 PM,66.4,52.2,60,29.86,7.0,South,31.1,47.2,N/A,,Scattered Clouds,170,2012-11-11 20:55:00
3:15 PM,65.5,52.3,62,29.85,10.0,SSE,29.9,40.3,N/A,,Mostly Cloudy,160,2012-11-11 21:15:00
3:35 PM,65.3,52.2,62,29.85,10.0,SSE,31.1,40.3,N/A,,Mostly Cloudy,160,2012-11-11 21:35:00
3:55 PM,65.1,52.2,63,29.84,10.0,SSE,32.2,41.4,N/A,,Mostly Cloudy,160,2012-11-11 21:55:00
4:15 PM,64.8,52.0,63,29.84,10.0,SSE,31.1,41.4,N/A,,Overcast,160,2012-11-11 22:15:00
4:35 PM,63.0,53.8,72,29.87,7.0,South,25.3,38.0,N/A,Rain,Rain,170,2012-11-11 22:35:00
4:55 PM,63.1,53.4,71,29.86,10.0,South,24.2,34.5,N/A,,Overcast,170,2012-11-11 22:55:00
5:15 PM,63.5,52.3,67,29.86,10.0,SSE,20.7,28.8,N/A,,Mostly Cloudy,160,2012-11-11 23:15:00
5:35 PM,63.5,51.8,66,29.87,10.0,South,24.2,28.8,N/A,,Mostly Cloudy,170,2012-11-11 23:35:00
5:55 PM,62.6,52.7,70,29.88,10.0,South,20.7,26.5,N/A,Rain,Light Rain,170,2012-11-11 23:55:00
6:15 PM,60.3,54.9,82,29.91,7.0,South,18.4,24.2,0.05,Rain,Rain,190,2012-11-12 00:15:00
6:35 PM,57.2,55.4,94,29.94,5.0,West,10.4,-,0.12,Rain,Heavy Rain,270,2012-11-12 00:35:00
6:55 PM,54.9,53.8,96,29.94,7.0,West,8.1,-,0.16,Rain,Rain,280,2012-11-12 00:55:00
7:15 PM,54.5,53.6,97,29.93,7.0,WNW,5.8,-,0.01,Rain,Light Rain,290,2012-11-12 01:15:00
7:35 PM,54.1,53.2,97,29.92,5.0,WNW,4.6,-,0.03,Rain,Rain,300,2012-11-12 01:35:00
7:55 PM,53.8,53.1,97,29.92,4.0,Calm,Calm,-,0.05,Rain,Rain,0,2012-11-12 01:55:00
8:15 PM,53.6,52.7,97,29.94,7.0,WSW,6.9,-,N/A,,Drizzle,250,2012-11-12 02:15:00
8:35 PM,53.6,52.7,97,29.93,10.0,WSW,4.6,-,N/A,Rain,Rain,240,2012-11-12 02:35:00
8:55 PM,53.2,52.3,97,29.94,10.0,WSW,3.5,-,0.01,,Heavy Drizzle,250,2012-11-12 02:55:00
9:15 PM,53.1,52.5,98,29.95,4.0,WSW,6.9,-,0.02,Rain,Rain,240,2012-11-12 03:15:00
9:35 PM,52.9,52.2,97,29.96,5.0,WSW,6.9,-,0.04,Rain,Light Rain,250,2012-11-12 03:35:00
9:55 PM,52.7,51.4,95,29.97,5.0,WSW,9.2,-,0.06,Rain,Light Rain,250,2012-11-12 03:55:00
10:15 PM,52.3,51.4,97,29.97,7.0,WSW,9.2,-,0.02,Rain,Light Rain,240,2012-11-12 04:15:00
10:35 PM,52.3,51.8,98,29.96,7.0,West,6.9,-,0.04,Rain,Rain,260,2012-11-12 04:35:00
10:55 PM,52.3,51.6,97,29.95,10.0,WSW,6.9,-,0.05,Rain,Rain,250,2012-11-12 04:55:00
11:15 PM,48.4,47.3,96,29.97,7.0,West,16.1,20.7,0.01,Rain,Rain,270,2012-11-12 05:15:00
11:35 PM,47.3,46.2,96,29.99,7.0,WNW,17.3,-,0.03,Rain,Rain,290,2012-11-12 05:35:00
11:55 PM,45.7,44.2,95,30.01,7.0,West,13.8,23.0,0.05,Rain,Light Rain,270,2012-11-12 05:55:00